Wind_Speed
6 7 10 12 14 15 17 19 20 20 21 22 23 24 25 25 24 23 25 24 20 22 22 31 35 35 26 22 21 20 20 19 20
8 8 7 9 11 13 14 17 19 20 19 19 20 22 21 21 21 22 21 22 19 19 23 22 23 28 22 20 21 19 19 16 16
3 3 4 8 10 14 14 15 17 18 16 16 18 19 18 18 19 19 18 17 19 18 19 19 19 17 18 17 16 17 15 16 16
3 3 5 7 10 15 16 15 17 18 17 16 17 17 16 16 16 17 17 16 16 18 17 16 16 15 15 14 15 16 16 16 17
6 2 3 8 11 15 16 16 16 17 16 16 17 16 16 16 15 16 17 16 16 17 16 16 15 15 14 14 13 14 13 14 14
3 1 4 8 11 12 15 17 16 16 15 16 16 16 16 15 15 16 15 15 16 16 15 15 14 13 13 14 13 11 10 9 8
2 4 6 8 10 12 15 16 17 15 15 14 14 15 15 15 15 16 16 15 15 15 15 14 13 13 12 13 12 10 7 6 6
6 5 7 8 9 11 14 17 18 17 16 16 16 16 17 17 16 16 15 16 16 15 14 14 13 12 12 11 12 12 9 9 10
6 4 7 8 10 13 14 20 20 19 19 19 19 18 18 18 17 17 17 16 16 15 15 15 13 13 12 11 12 11 15 13 13
6 6 6 8 11 13 18 21 21 20 20 19 20 20 20 20 19 17 16 16 15 16 17 15 14 13 12 12 10 11 12 14 12
9 8 6 7 9 12 17 20 21 20 21 21 21 21 20 20 21 20 18 18 17 15 15 15 14 13 14 13 12 12 11 12 9
12 11 7 4 7 12 15 19 21 21 21 22 22 23 23 21 20 21 20 19 20 19 17 16 15 15 15 14 12 16 15 13 9
12 13 13 6 3 8 11 16 19 21 22 23 23 22 23 23 22 22 21 22 22 20 20 19 19 18 17 16 13 15 15 14 11
9 10 13 10 3 2 5 9 16 19 20 22 21 22 22 22 24 23 21 20 19 18 19 18 18 17 16 16 16 15 17 15 11
7 9 10 9 6 4 1 4 9 13 16 16 16 18 18 19 20 21 20 21 20 18 19 19 19 19 17 16 15 16 18 16 14
5 6 7 6 5 4 5 3 3 7 8 9 11 13 17 18 17 16 13 9 6 8 15 19 20 20 20 17 18 15 17 16 15
4 6 7 5 2 1 3 5 4 3 8 11 14 12 9 15 15 19 16 14 6 18 47 28 23 20 20 19 18 18 15 12 13
4 5 4 3 4 5 3 4 3 3 5 8 10 10 10 12 16 18 18 26 30 27 46 30 22 23 21 21 20 22 19 16 15
4 3 4 4 1 1 1 1 2 2 3 9 12 14 15 18 15 22 19 15 13 11 19 22 28 24 18 17 21 22 20 20 18
6 8 6 4 1 3 3 1 3 3 1 2 3 8 6 8 11 12 12 7 6 7 15 25 20 17 19 20 19 23 19 21 23
Wind_Direction
223 207 204 201 201 201 201 205 206 206 203 207 210 211 213 216 219 222 222 225 211 215 213 213 224 225 237 250 246 243 249 252 244
221 234 200 202 195 194 192 194 196 199 199 204 204 206 207 211 214 215 220 211 219 221 223 217 222 229 240 239 242 246 244 246 247
142 139 194 187 185 185 184 188 188 191 195 199 197 198 200 204 209 211 212 208 210 214 219 228 226 218 229 240 234 236 243 247 251
70 114 149 171 174 178 179 180 180 184 187 189 192 196 195 196 200 200 197 201 207 211 226 219 219 229 236 232 235 236 236 250 257
47 27 136 167 172 176 177 178 180 181 183 187 189 188 188 190 191 192 197 198 204 212 215 219 226 226 226 222 219 229 237 254 252
294 27 148 171 170 177 177 179 178 177 183 186 182 181 186 186 187 190 199 200 205 204 210 213 214 220 218 214 216 221 236 250 250
298 203 171 191 174 180 177 175 173 177 177 182 180 180 179 182 188 195 196 195 197 196 199 208 209 208 211 211 205 206 206 206 216
281 231 198 182 186 178 178 177 176 178 177 177 177 178 178 179 178 180 183 184 187 195 199 201 203 203 205 210 208 209 193 179 181
294 295 212 200 182 186 187 185 184 180 177 178 177 178 177 173 172 176 182 186 193 199 202 202 206 203 202 203 212 199 204 194 194
343 320 288 217 202 196 193 190 185 182 180 177 180 179 179 177 174 180 188 192 195 200 201 200 200 201 199 201 203 207 196 198 209
6 354 309 262 219 204 198 194 189 186 180 180 181 181 184 185 178 180 187 189 192 196 203 203 202 202 199 193 190 186 186 183 198
24 12 348 273 223 211 198 198 193 189 185 184 186 186 188 189 193 187 185 193 193 193 196 200 202 203 202 201 196 190 183 181 198
21 24 21 359 244 224 205 207 199 195 194 194 194 192 189 190 195 199 197 192 192 199 198 201 200 202 202 202 202 204 203 193 206
25 23 22 26 28 233 224 216 207 203 204 207 201 193 191 191 195 197 203 201 198 200 211 207 207 203 204 205 201 203 206 208 206
20 16 21 21 40 58 80 206 210 213 215 212 211 202 196 193 202 198 197 198 196 199 202 207 206 204 205 206 211 208 205 205 198
15 12 18 20 30 61 67 97 175 192 182 177 188 194 199 192 195 197 191 202 245 253 228 225 222 213 212 207 202 207 214 206 211
349 7 14 14 349 126 94 78 52 113 178 183 175 174 189 192 189 196 188 204 209 281 301 257 235 226 226 208 198 201 199 201 222
316 299 296 27 20 41 54 8 332 249 213 196 196 189 206 213 200 203 208 197 200 207 251 247 251 239 230 209 198 201 191 189 205
16 330 267 235 299 325 12 351 18 21 203 224 237 255 257 250 215 199 198 199 153 197 238 264 244 247 226 223 224 214 205 207 210
70 72 78 78 20 297 288 312 53 14 54 153 281 273 256 237 226 215 204 140 134 217 245 243 237 234 234 244 238 228 221 218 215
Height
700 703 705 709 716 722 729 735 741 745 750 755 759 763 767 771 775 778 781 784 787 791 793 795 798 805 806 808 808 809 808 808 807
699 697 699 706 712 719 725 731 736 741 746 750 754 759 763 767 770 774 776 779 784 787 789 792 796 799 802 802 803 803 803 802 802
693 696 701 704 709 715 722 728 733 739 743 747 750 754 759 762 766 770 774 778 781 783 787 789 791 793 795 797 798 798 799 798 798
692 696 700 703 707 713 719 724 729 734 739 743 748 752 755 759 762 767 770 773 776 780 783 785 786 788 791 792 793 794 795 795 794
690 699 699 702 706 711 716 721 726 731 736 741 745 749 753 756 760 764 767 769 773 776 779 781 783 785 786 787 789 791 791 790 790
692 699 700 700 704 711 715 719 725 730 735 738 742 746 750 754 757 760 763 766 769 772 775 777 779 781 782 783 785 787 788 788 788
689 695 699 700 702 707 714 719 724 728 732 737 740 744 748 752 755 758 760 764 766 769 772 774 775 777 778 780 782 784 785 785 787
692 692 695 698 703 706 712 717 721 725 729 734 738 741 744 747 750 753 757 760 764 767 769 771 772 773 775 778 779 780 783 783 784
693 692 690 694 699 705 709 712 716 721 724 728 733 737 740 744 747 751 755 758 762 765 767 768 769 771 772 774 775 775 778 781 783
694 694 691 690 694 698 702 707 712 717 721 726 730 733 736 740 744 749 753 756 758 761 763 766 767 768 770 772 773 774 775 777 780
693 692 691 690 689 694 698 703 708 713 717 723 727 731 735 738 739 742 746 750 754 758 761 763 764 766 768 769 770 771 774 776 777
695 693 691 689 688 691 695 699 704 709 714 719 722 724 729 734 738 738 740 746 749 751 755 759 762 765 767 768 768 766 768 773 776
698 696 695 692 691 692 694 698 701 706 710 714 716 721 724 729 735 738 739 739 743 749 751 754 756 760 762 764 767 767 768 768 772
701 700 698 695 693 694 695 697 700 704 708 710 714 716 720 725 728 733 738 741 744 746 752 752 755 757 759 762 763 763 765 768 770
703 701 701 699 697 697 698 700 701 704 706 709 713 716 719 721 725 728 731 737 740 744 748 752 752 754 756 757 761 762 761 762 766
704 704 704 703 701 702 702 702 702 704 707 710 714 716 716 716 719 726 732 735 742 751 752 750 751 751 750 751 754 757 762 759 762
703 704 704 703 704 704 706 707 707 707 708 709 711 713 714 711 715 722 727 729 726 741 762 755 746 745 746 747 749 752 754 756 762
704 705 706 706 707 707 708 709 709 709 709 710 711 713 711 712 715 718 721 722 729 718 742 744 741 743 742 742 744 746 746 750 756
706 706 707 708 710 710 709 709 709 709 709 711 713 713 714 714 717 717 715 717 710 711 728 735 736 736 736 738 739 740 742 747 752
710 707 709 709 710 711 710 710 710 711 710 710 711 711 711 711 714 719 723 709 710 719 723 726 728 727 729 732 734 736 736 741 746